Regional Weather Roundup
Issued by NWS

Home | Current Version | Previous Version | Graphics & Text | Print | Product List | Glossary On
Versions: 1 2 3 4 5 6 7 8 9 10 11 12 13 14 15 16 17 18 19 20 21 22 23 24 25 26 27 28 29 30 31 32 33 34 35 36 37 38 39 40 41 42 43 44 45 46 47 48 49 50
000
ASUS43 KMPX 220510
RWRMN
WEATHER ROUNDUP FOR MINNESOTA
NATIONAL WEATHER SERVICE TWIN CITIES/CHANHASSEN MN
1200 AM CDT FRI SEP 22 2017


NOTE: "FAIR" INDICATES FEW OR NO CLOUDS BELOW 12,000 FEET WITH NO
SIGNIFICANT WEATHER AND/OR OBSTRUCTIONS TO VISIBILITY. N/A MEANS
CURRENT SKY AND/OR WEATHER CONDITIONS ARE NOT AVAILABLE.

MNZ060>063-068>070-220600-
   Twin Cities Metro

CITY           SKY/WX    TMP DP  RH WIND       PRES   REMARKS
TWIN CITIES    PTCLDY    76  69  79 SE10      29.84R
ST PAUL        CLEAR     74  67  78 SE14      29.84S
CRYSTAL        CLEAR     76  65  68 SE10      29.81S
BLAINE         CLEAR     77  66  69 SE8       29.83S
LAKEVILLE      PTCLDY    72  68  88 CALM      29.85R
EDEN PRAIRIE   CLEAR     79  70  74 SE12      29.82R
SOUTH ST PAUL  CLEAR     75  65  72 SE7       29.84S
LAKE ELMO      FAIR      73  66  78 SE9       29.87R
$$
MNZ001>005-007-008-013>017-022>024-027-028-220600-
   Northwest Minnesota

CITY           SKY/WX    TMP DP  RH WIND       PRES   REMARKS
BEMIDJI        LGT RAIN  64  61  91 SE3       29.80S
HALLOCK          N/A     66  54  63 SE5       29.74R
ROSEAU         CLEAR     59  54  82 E3        29.77S
WARROAD        CLEAR     61  57  88 NE3       29.79R
THIEF RVR FALL PTCLDY    64  57  78 E8        29.76S
CROOKSTON      CLEAR     66  59  77 SE6       29.73S
FOSSTON        PTCLDY    68  61  77 SE7       29.76F
DETROIT LAKES  CLEAR     70  64  83 SE7       29.78S
MOORHEAD       CLEAR     72  66  83 SE6       29.73S
PARK RAPIDS    MOCLDY    70  65  84 CALM      29.79S
MAHNOMEN       FAIR      68  64  86 SE8       29.75S
$$
MNZ006-009>011-018-025>026-220600-
   North Central Minnesota

CITY           SKY/WX    TMP DP  RH WIND       PRES   REMARKS
BAUDETTE       CLOUDY    62  55  77 SE6       29.79S
FLAG ISLAND    CLEAR     64  52  63 SE5       29.78S
INTL FALLS     CLOUDY    63  56  78 SE6       29.82F
WASKISH        PTCLDY    66  61  82 S7        29.79R
BIG FORK       PTCLDY    63  59  88 SE7       29.82F
LONGVILLE      CLEAR     64  63  94 SE5       29.82S
GRAND RAPIDS   PTCLDY    62  59  90 SE7       29.86F
CRANE LAKE     CLOUDY    61  54  77 CALM      29.86F
ORR            PTCLDY    61  54  77 SE8       29.83F
COOK           PTCLDY    61  55  82 SE5       29.86F
WALKER         FAIR      65  62  91 E5        29.80F
$$
MNZ012-019>021-037-220600-
   Northeast Minnesota

CITY           SKY/WX    TMP DP  RH WIND       PRES   REMARKS
DULUTH         PTCLDY    58  56  93 SE10      29.89F
ELY            CLOUDY    61  59  94 SE6       29.87F
HIBBING        PTCLDY    59  54  83 CALM      29.86F
EVELETH        PTCLDY    60  53  76 CALM      29.88F
DULUTH HARBOR  PTCLDY    61  57  88 NE14      29.90F
TWO HARBORS    CLEAR     61  55  82 CALM      29.89F
SILVER BAY     MOCLDY    61  55  82 CALM      29.90F
GRAND MARAIS     N/A     62  54  74 NE6       29.93F
G MARAIS ARPRT PTCLDY    55  50  82 E3        29.97F
$$
MNZ029>031-032-039>041-046>048-054>057-064-220600-
   West Central Minnesota

CITY           SKY/WX    TMP DP  RH WIND       PRES   REMARKS
FERGUS FALLS   CLEAR     73  68  83 SE7       29.73S
WHEATON        PTCLDY    70  66  88 SE7       29.74S
MORRIS         CLEAR     73  72  94 SE8       29.73F
ALEXANDRIA     PTCLDY    71  68  90 SE9       29.79S
ELBOW LAKE     FAIR      72  69  90 SE7       29.75S
WADENA         CLEAR     68  68 100 SE5       29.78F
GLENWOOD       PTCLDY    70  68  94 SE7       29.78F
APPLETON       CLEAR     75  70  83 SE8       29.73S
BENSON         CLOUDY    77  70  78 S9        29.76S
ORTONVILLE     PTCLDY    73  68  83 NE7       29.72S
MADISON        CLEAR     73  73 100 E5        29.73S
WILLMAR        MOCLDY    77  72  83 SE8       29.78S
$$
MNZ033>034-036-042>043-049>051-058-059-220600-
   Central Minnesota

CITY           SKY/WX    TMP DP  RH WIND       PRES   REMARKS
ST CLOUD       LGT RAIN  73  69  87 SE5       29.80S
SAUK CENTRE    MOCLDY    70  67  92 E6        29.79S
PAYNESVILLE    PTCLDY    74  70  87 SE7       29.79S
AITKIN         CLEAR     63  61  94 E3        29.82F
PINE RIVER     CLEAR     63  59  88 SE6       29.85S
BRAINERD       CLEAR     70  66  87 SE6       29.81F
STAPLES        CLEAR     70  66  88 SE3       29.79F
LITTLE FALLS   RAIN      70  63  78 SE6       29.80S
LITCHFIELD     CLEAR     79  72  78 SE8       29.80S
BUFFALO        PTCLDY    77  68  73 SE8       29.81F
MAPLE LAKE     PTCLDY    76  71  84 SE5       29.82S
HUTCHINSON     MOCLDY    76  72  86 SE7       29.82R
$$
MNZ037-044-045-052-053-220600-
   East Central Minnesota

CITY           SKY/WX    TMP DP  RH WIND       PRES   REMARKS
PRINCETON      CLEAR     73  68  83 SE6       29.81F
MORA           PTCLDY    68  63  83 E3        29.85S
CAMBRIDGE      CLEAR     75  63  64 SE5       29.83S
RUSH CITY      PTCLDY    73  65  76 SE7       29.85S
MOOSE LAKE     MOCLDY    59  55  88 NE3       29.86S
HINCKLEY       FAIR      70  68  94 E5        29.85S
CLOQUET        PTCLDY    57  54  88 E6        29.89F
MCGREGOR       CLEAR     63  61  94 SE6       29.85F
$$
MNZ071>073-080-081-089-090-097-098-220600-
   Southwest Minnesota

CITY           SKY/WX    TMP DP  RH WIND       PRES   REMARKS
MONTEVIDEO     CLEAR     73  70  88 SE7       29.74S
GRANITE FALLS  CLEAR     76  71  84 E10       29.76S
CANBY          CLEAR     70  69  94 E3        29.74S FOG
MARSHALL       CLEAR     74  71  91 SE8       29.74S
REDWOOD FALLS  CLEAR     74  69  85 SE9       29.76S
OLIVIA         PTCLDY    77  70  78 SE12      29.77S
PIPESTONE      CLEAR     75  72  88 S8        29.76S
WINDOM         CLEAR     77  70  78 S13       29.79S
WORTHINGTON    CLEAR     75  71  87 S12       29.79
JACKSON        CLEAR     75  70  83 S10G20    29.82R
TRACY          CLEAR     76  72  88 S8        29.76S
SLAYTON        CLEAR     72  69  90 SE7       29.78S
$$
MNZ065>067-074>077-082>085-091>093-220600-
   South Central Minnesota

CITY           SKY/WX    TMP DP  RH WIND       PRES   REMARKS
MANKATO        CLOUDY    79  70  74 S14       29.82R
NEW ULM        PTCLDY    79  70  73 SE13      29.79S
ST JAMES       CLEAR     75  70  83 SE10      29.80S
FAIRMONT       CLEAR     75  70  84 S12       29.82R
GLENCOE        MOCLDY    78  73  86 SE7       29.82R
FARIBAULT      CLOUDY    79  70  73 SE13      29.86R
OWATONNA       CLEAR     77  70  78 SE16      29.87R
WASECA         MOCLDY    77  68  73 SE10      29.86S
ALBERT LEA     PTCLDY    79  70  73 S15G23    29.87R
$$
MNZ078>079-086>088-094>096-220600-
   Southeast Minnesota

CITY           SKY/WX    TMP DP  RH WIND       PRES   REMARKS
ROCHESTER      CLEAR     73  67  81 S14       29.91R
RED WING       MOCLDY    77  63  61 SE9       29.87R
STANTON        CLOUDY    76  68  74 SE9       29.85R
DODGE CENTER   CLEAR     75  66  73 SE14G21   29.89S
WINONA         CLEAR     77  66  69 S7        29.91S
AUSTIN         CLEAR     75  66  73 S10G16    29.89R
PRESTON        CLEAR     73  66  79 S12G17    29.92F
$$
ABBREVIATIONS USED IN REMARKS
   TC - TEMPERATURES IN CELSIUS
  WCI - WIND CHILL INDEX
   HX - HEAT INDEX
  VSB - VISIBILITY
$$




USA.gov is the U.S. government's official web portal to all federal, state and local government web resources and services.